[[{"header":{"parameterUnit":"m.s-1","parameterCategory":1,"la1":30.2991,"la2":30.254,"lo1":-89.0895,"lo2":-89.0444,"dy":0.0017,"dx":0.0017,"nx":28,"ny":28,"refTime":"2023-08-06T21:00:00:Z","depth":0,"parameterNumber":2,"parameterNumberName":"U-component_of_WINDS"},"data":[0,0,0,0,0,0,0,0,0,0,0,0,0,0,0,0,0,0,0,0,0,0,0,0,0,0,0,0,0,0,0,0,0,0,0,0,0,0,0,0,0,0,0,0,0,0,0,0,0,0,0,0,0,0,0,0,0,0,3.6573,3.6573,0,3.6663,3.6664,3.6665,3.6644,3.6643,3.6641,3.6639,3.6739,3.6744,3.6748,0,0,0,0,0,0,0,0,0,0,0,0,0,3.6389,3.6392,3.6572,3.6574,3.6575,3.6663,3.6664,3.6666,3.6645,3.6643,3.6641,3.6639,3.6738,3.6743,3.6748,0,0,0,0,0,0,0,0,0,0,0,0,0,3.6473,3.6393,3.6572,3.6575,3.6576,3.6663,3.6664,3.6666,3.6645,3.6643,3.664,3.6638,3.6736,3.6743,3.6749,3.6841,0,0,3.6769,3.6771,0,0,0,0,0,0,0,0,3.6468,3.648,3.6573,3.6575,3.6576,3.664,3.6636,3.6725,3.6646,3.6619,3.6639,3.6636,3.6709,3.6717,3.674,3.6846,3.685,3.6769,3.6773,3.6776,3.6778,0,0,0,0,0,0,0,3.6463,3.6476,3.6609,3.6575,3.6576,3.6574,3.6583,3.6653,3.6678,3.6621,3.662,3.6631,3.6709,3.6734,3.6743,3.6852,3.6769,3.6775,3.6779,3.6781,3.7041,3.7044,0,0,0,0,0,0,3.6455,3.6471,3.6606,3.6611,3.6514,3.6579,3.659,3.6622,3.6677,3.6683,3.6633,3.6629,3.6725,3.6735,3.6746,3.686,3.6776,3.6782,3.6786,3.7038,3.7042,3.7045,0,0,0,0,0,0,3.6451,3.6467,3.6602,3.6541,3.6558,3.6585,3.6622,3.6625,3.665,3.6685,3.6691,3.6653,3.6723,3.6737,3.6818,3.6863,3.6785,3.6791,3.7035,3.7039,3.7044,3.7088,0,0,0,0,0,0,3.6445,3.6465,3.6499,3.6542,3.6561,3.667,3.6625,3.6629,3.6661,3.6657,3.6706,3.6712,3.6722,3.6809,3.6824,3.6871,3.6796,3.7031,3.7037,3.7042,3.7082,3.7093,3.7102,0,0,0,0,0,3.6439,3.6508,3.65,3.6517,3.6603,3.6673,3.6684,3.6692,3.6664,3.67,3.6723,3.671,3.6855,3.6817,3.6835,3.6884,3.7028,3.7035,3.7042,3.7078,3.7091,3.7102,0,0,0,0,0,0,3.6472,3.6514,3.6506,3.659,3.6628,3.6669,3.6713,3.6705,3.6753,3.6748,3.6758,3.677,3.6853,3.6876,3.6833,3.6978,3.6938,3.6949,3.696,3.6972,3.6982,3.6976,3.6801,0,0,0,0,0,3.6488,3.6539,3.6574,3.6646,3.6665,3.6686,3.6717,3.6719,3.676,3.6776,3.6805,3.6847,3.6902,3.6938,3.699,3.7085,3.7098,3.7128,3.7138,3.7146,3.7156,3.7211,3.7226,3.7068,3.7068,3.7067,0,0,3.6525,3.6554,3.6585,3.6653,3.6682,3.6738,3.67,3.6759,3.6801,3.6786,3.6864,3.6887,3.6934,3.7023,3.7064,3.7045,3.7202,3.7155,3.7161,3.7166,3.7219,3.7234,3.7248,3.7072,3.7071,3.7071,0,0,3.6619,3.6644,3.6708,3.6738,3.6782,3.6796,3.6812,3.6854,3.6868,3.6946,3.6937,3.6989,3.7082,3.7117,3.7147,3.7256,3.7248,3.7273,3.7327,3.738,3.7393,3.7404,3.7446,3.746,3.7283,3.7283,3.7283,0,3.6658,3.6738,3.6742,3.6803,3.6835,3.6822,3.6889,3.6918,3.6978,3.7002,3.6979,3.7098,3.7129,3.7228,3.7254,3.7278,3.7299,3.7269,3.739,3.7401,3.7412,3.7452,3.7468,3.7286,3.7285,3.7285,3.7285,0,3.6787,3.6843,3.6889,3.6946,3.6983,3.7046,3.7063,3.71,3.71,3.7117,3.7199,3.7235,3.7296,3.732,3.7321,3.7419,3.7407,3.7387,3.7348,3.743,3.7468,3.7483,3.729,3.7289,3.7288,3.7287,0,0,3.6905,3.6963,3.6981,3.7007,3.7056,3.7101,3.7165,3.7222,3.7256,3.7298,3.7354,3.7435,3.7417,3.7452,3.7457,3.7503,3.7591,3.7479,3.748,3.7501,3.7706,3.7722,3.774,3.7585,3.7588,3.759,3.7703,0,3.7005,3.7116,3.7122,3.7224,3.7278,3.7267,3.7323,3.7361,3.7379,3.7429,3.745,3.7508,3.7479,3.75,3.7545,3.7571,3.7633,3.7562,3.7641,3.7644,3.7632,3.7759,3.7776,3.788,3.7717,3.772,3.7722,0,3.7137,3.7182,3.7289,3.7332,3.7355,3.7405,3.746,3.7507,3.755,3.7561,3.7599,3.7598,3.7668,3.7624,3.7722,3.7674,3.7706,3.7724,3.7728,3.7738,3.7689,3.7775,3.7913,3.793,3.7745,3.7743,3.7741,0,3.7217,3.7304,3.7379,3.7402,3.7453,3.749,3.7513,3.7554,3.7589,3.7637,3.7661,3.7717,3.7749,3.7794,3.781,3.7777,3.7909,3.7866,3.7922,3.7922,3.7952,3.795,3.8101,3.7969,3.7968,3.7968,3.7968,0,3.733,3.7396,3.7416,3.7463,3.7538,3.7546,3.7621,3.7643,3.7679,3.7733,3.7726,3.7777,3.7793,3.7848,3.7861,3.7942,3.7955,3.7968,3.7971,3.797,3.7969,3.7993,3.7988,3.7972,3.7971,3.7971,3.797,0,3.7432,3.7447,3.7529,3.7571,3.7583,3.7637,3.7674,3.7721,3.7737,3.7805,3.7822,3.785,3.7914,3.7933,3.801,3.8019,3.8115,3.811,3.8099,3.81,3.8157,3.8152,3.833,3.8355,3.8204,3.8205,3.8207,0,3.7504,3.7555,3.7602,3.7636,3.766,3.7715,3.7751,3.7761,3.7799,3.7853,3.7895,3.7957,3.8008,3.8111,3.814,3.82,3.8199,3.8257,3.8208,3.8206,3.8203,3.8201,3.8208,3.8267,3.8269,3.827,3.8271,0,3.7632,3.7638,3.7687,3.7741,3.7783,3.7826,3.7868,3.7897,3.7914,3.7957,3.8021,3.8061,3.8139,3.8203,3.8264,3.8291,3.8286,3.8286,3.8302,3.8303,3.8296,3.8304,3.8127,3.8282,3.8281,3.828,3.828,3.8279,3.7724,3.7769,3.781,3.7867,3.7899,3.7938,3.7984,3.8007,3.806,3.8123,3.8127,3.8197,3.8242,3.8323,3.8354,3.8411,3.8395,3.8418,3.8425,3.8431,3.8437,3.8285,3.8422,3.8422,3.8421,3.8421,3.8421,0,3.7854,3.7879,3.7931,3.7989,3.8035,3.8022,3.8068,3.8108,3.8169,3.821,3.826,3.8336,3.8398,3.8431,3.8494,3.8534,3.8533,3.855,3.8549,3.8556,3.8447,3.8427,3.855,3.855,3.855,3.855,3.855,3.855,3.7928,3.8005,3.8015,3.811,3.8135,3.8202,3.823,3.8268,3.8301,3.8384,3.8435,3.8455,3.8495,3.856,3.8618,3.8626,3.8651,3.8671,3.8678,3.8576,3.8563,3.8551,3.8533,3.8675,3.8676,3.8783,3.8784,3.8785]},{"header":{"parameterUnit":"m.s-1","parameterCategory":1,"la1":30.2991,"la2":30.254,"lo1":-89.0895,"lo2":-89.0444,"dy":0.0017,"dx":0.0017,"nx":28,"ny":28,"refTime":"2023-08-06T21:00:00:Z","depth":0,"parameterNumber":3,"parameterNumberName":"V-component_of_WINDS"},"data":[0,0,0,0,0,0,0,0,0,0,0,0,0,0,0,0,0,0,0,0,0,0,0,0,0,0,0,0,0,0,0,0,0,0,0,0,0,0,0,0,0,0,0,0,0,0,0,0,0,0,0,0,0,0,0,0,0,0,1.0495,1.0495,0,1.0563,1.0564,1.0565,1.0573,1.0572,1.0571,1.0571,1.064,1.0642,1.0645,0,0,0,0,0,0,0,0,0,0,0,0,0,1.0367,1.037,1.0495,1.0496,1.0496,1.0563,1.0564,1.0565,1.0573,1.0572,1.0571,1.057,1.0639,1.0642,1.0645,0,0,0,0,0,0,0,0,0,0,0,0,0,1.0428,1.037,1.0495,1.0508,1.051,1.0563,1.0564,1.0565,1.0573,1.0572,1.0571,1.057,1.0638,1.0642,1.0645,1.0689,0,0,1.0657,1.0658,0,0,0,0,0,0,0,0,1.0424,1.0432,1.0506,1.0508,1.051,1.0558,1.0544,1.0607,1.0573,1.0549,1.0571,1.057,1.0614,1.0619,1.0634,1.0692,1.0695,1.0657,1.0659,1.0661,1.0662,0,0,0,0,0,0,0,1.042,1.043,1.0522,1.0507,1.0509,1.051,1.0518,1.0556,1.0586,1.0551,1.0552,1.056,1.0615,1.0631,1.0636,1.0696,1.0657,1.066,1.0663,1.0664,1.0788,1.0789,0,0,0,0,0,0,1.0414,1.0426,1.052,1.0524,1.0464,1.0513,1.0522,1.0544,1.0586,1.0591,1.0561,1.056,1.0625,1.0632,1.0638,1.0689,1.0661,1.0664,1.0667,1.0787,1.0788,1.0789,0,0,0,0,0,0,1.0411,1.0422,1.0517,1.0475,1.0487,1.0516,1.0541,1.0546,1.0562,1.0593,1.0598,1.0572,1.0624,1.0633,1.0675,1.0692,1.0666,1.0669,1.0786,1.0787,1.0789,1.0792,0,0,0,0,0,0,1.0407,1.0421,1.0439,1.0475,1.0489,1.0554,1.0543,1.0548,1.0568,1.0568,1.0605,1.061,1.0624,1.067,1.0679,1.0696,1.0672,1.0784,1.0786,1.0788,1.0791,1.0794,1.0797,0,0,0,0,0,1.0403,1.0438,1.044,1.0451,1.0512,1.0555,1.0563,1.0578,1.057,1.0587,1.0606,1.0609,1.0688,1.0674,1.0684,1.0703,1.0783,1.0786,1.0788,1.079,1.0793,1.0796,0,0,0,0,0,0,1.0403,1.0443,1.0446,1.0494,1.0521,1.0556,1.0579,1.0582,1.0612,1.0611,1.0629,1.0637,1.0677,1.0695,1.0678,1.0745,1.0735,1.0739,1.0732,1.0736,1.0739,1.0734,1.0675,0,0,0,0,0,1.0409,1.044,1.0473,1.0512,1.0526,1.0549,1.0569,1.0578,1.0607,1.0618,1.0641,1.0668,1.0698,1.0718,1.0749,1.0793,1.08,1.0811,1.0814,1.0816,1.082,1.0841,1.0846,1.0797,1.0797,1.0797,0,0,1.0421,1.0446,1.0466,1.0513,1.0535,1.0566,1.0559,1.0593,1.0615,1.0623,1.0664,1.0681,1.0712,1.0754,1.0774,1.077,1.0834,1.0819,1.082,1.0823,1.0844,1.0849,1.0853,1.0799,1.0798,1.0798,0,0,1.0458,1.0482,1.0515,1.0537,1.057,1.0585,1.0593,1.0627,1.0638,1.0679,1.0684,1.0711,1.0764,1.0785,1.0802,1.0843,1.0846,1.0853,1.0867,1.0888,1.0892,1.0895,1.0908,1.0912,1.0856,1.0856,1.0856,0,1.0469,1.0517,1.0532,1.0565,1.0584,1.0592,1.0625,1.0645,1.0686,1.0698,1.0693,1.0757,1.0779,1.0825,1.0834,1.0849,1.0857,1.0849,1.089,1.0894,1.0897,1.0909,1.0914,1.0857,1.0857,1.0857,1.0857,0,1.0527,1.0559,1.0582,1.0621,1.0643,1.0676,1.0694,1.0715,1.0721,1.0736,1.0776,1.0801,1.0835,1.0847,1.0855,1.0893,1.0889,1.0887,1.0877,1.0902,1.0913,1.0918,1.0857,1.0857,1.0857,1.0857,0,0,1.0568,1.0612,1.062,1.0636,1.0671,1.0696,1.0728,1.0761,1.0776,1.0804,1.0829,1.0872,1.0869,1.0889,1.0898,1.0917,1.0944,1.0912,1.0913,1.0915,1.0985,1.0986,1.0991,1.0946,1.0947,1.0948,1.0982,0,1.0608,1.0665,1.0679,1.0727,1.0755,1.0761,1.0788,1.0811,1.0825,1.0851,1.0866,1.0895,1.089,1.0902,1.092,1.0937,1.0958,1.0935,1.0968,1.0969,1.0959,1.0997,1.0999,1.103,1.0986,1.0987,1.0988,0,1.0663,1.069,1.0741,1.0769,1.0781,1.0806,1.0835,1.086,1.0885,1.0894,1.0914,1.0921,1.0951,1.094,1.0981,1.0965,1.0979,1.0988,1.099,1.0993,1.098,1.1,1.1041,1.1045,1.0995,1.0995,1.0994,0,1.0685,1.0734,1.077,1.0784,1.0819,1.0835,1.085,1.0874,1.0892,1.0917,1.0928,1.0957,1.0972,1.0993,1.1007,1.0997,1.1046,1.1036,1.1052,1.1052,1.1062,1.1061,1.1104,1.1073,1.1073,1.1073,1.1073,0,1.0728,1.0758,1.078,1.0802,1.0835,1.0849,1.0882,1.0896,1.0917,1.0941,1.0948,1.097,1.0986,1.101,1.102,1.1051,1.1059,1.1065,1.1067,1.1064,1.1063,1.1073,1.1071,1.1074,1.1074,1.1074,1.1074,0,1.0758,1.0775,1.0814,1.0842,1.085,1.0873,1.0897,1.0917,1.093,1.096,1.0967,1.0988,1.1015,1.103,1.1066,1.1072,1.1106,1.1108,1.1098,1.1099,1.1113,1.1111,1.1164,1.1171,1.1136,1.1136,1.1136,0,1.0784,1.0807,1.0837,1.0854,1.0868,1.0895,1.0912,1.0926,1.0944,1.0972,1.0989,1.1017,1.104,1.1083,1.11,1.1126,1.1128,1.1144,1.1132,1.1127,1.1126,1.1124,1.1125,1.1146,1.1147,1.1147,1.1147,0,1.0827,1.0833,1.0858,1.0885,1.0906,1.0928,1.095,1.0963,1.0979,1.0998,1.1027,1.1044,1.1079,1.1105,1.1132,1.1146,1.1149,1.1151,1.1156,1.1152,1.1144,1.1147,1.1102,1.115,1.1149,1.1149,1.1149,1.1149,1.0855,1.0874,1.0898,1.0925,1.0942,1.0962,1.0981,1.0996,1.102,1.1049,1.1055,1.1084,1.1106,1.1142,1.1156,1.1178,1.1174,1.1182,1.1184,1.1185,1.1185,1.1141,1.1183,1.1183,1.1183,1.1183,1.1183,0,1.0896,1.0911,1.0936,1.0965,1.0985,1.0986,1.1009,1.1026,1.1051,1.1072,1.1093,1.1124,1.1149,1.1167,1.1192,1.1206,1.1207,1.1212,1.1211,1.1213,1.1187,1.118,1.121,1.121,1.121,1.121,1.121,1.121,1.092,1.0953,1.0961,1.1001,1.1015,1.1044,1.1056,1.1074,1.1089,1.1123,1.1144,1.1155,1.1174,1.12,1.1222,1.1226,1.1235,1.1239,1.1243,1.1218,1.1215,1.1213,1.1205,1.1241,1.1241,1.1267,1.1267,1.1267]}]]